{"data":{"norad_id":49741,"intl_designator":"2021-115T","name":"STARLINK-3244","alt_names":[],"object_type":"PAYLOAD","status":"ACTIVE","operator":null,"country":"US","launch_date":"2021-12-02","launch_site_code":"AFETR","launch_vehicle":null,"mission":null,"orbit_class":"UNKNOWN","rcs_meters":null,"size_class":null,"mass_kg":null,"dimensions":null,"purposes":["comms"],"wikipedia_slug":null,"has_3d_model":false,"image_url":null,"decayed_at":null,"tle_current":{"epoch":"2026-05-25T01:23:52.327392Z","epoch_age_seconds":80505,"freshness":"FRESH","line1":"1 49741U 21115T   26145.05824453  .00000738  00000+0  64464-4 0  9999","line2":"2 49741  53.2150 166.2973 0001108  69.7807 290.3305 15.08839424247069","mean_motion":15.08839424,"eccentricity":0.0001108,"inclination_deg":53.215,"raan_deg":166.2973,"arg_perigee_deg":69.7807,"mean_anomaly_deg":290.3305,"bstar":6.4464e-5,"rev_number":24706,"period_min":95.437591111087,"perigee_km":538.97864822406,"apogee_km":540.5116509084,"semimajor_km":6917.8821495662,"source":"CELESTRAK","updated_at":"2026-05-25T13:38:16.834599Z"}}}